RH
14 12 12 12 12 13 13 13 14 12 8 10 37 68 64 34 13 9 10 11 11 12 13 13 14 15 16 17 17 19 22 24 26 26 26 27 26 25 24 23 22 20 19 19 17 15 13 11 9 7 9 14 18 18 18 19 20 21 21 22 22 21 21 21 22 23 25 25 22 19 18 17 19 18 15 18 25 23 22 27 29 23 19 30 49
12 12 12 13 14 14 13 13 14 11 7 19 51 71 52 22 11 12 11 12 13 13 14 15 16 17 17 18 19 21 24 25 26 26 27 27 27 26 25 23 22 21 20 19 17 15 13 11 9 7 9 17 21 20 19 19 21 22 23 23 23 24 23 22 23 25 26 27 26 23 20 18 17 19 17 13 16 21 21 20 23 25 22 21 31
12 12 13 14 14 14 13 11 10 10 14 34 69 83 59 29 15 13 13 14 14 15 16 17 17 18 18 19 21 24 26 26 27 27 27 28 27 27 26 24 23 21 20 19 17 14 13 11 9 7 10 18 23 21 18 19 22 24 25 23 22 24 25 24 22 21 21 22 24 23 21 20 17 16 17 16 12 14 19 22 21 21 24 24 23
13 14 14 14 15 13 11 11 10 13 27 56 85 86 58 28 15 13 15 15 15 17 17 17 18 18 19 21 24 26 27 28 28 28 29 29 29 28 26 25 23 22 21 19 17 15 13 10 8 8 13 20 23 21 18 19 21 22 22 22 20 20 23 27 26 25 23 20 19 20 19 17 17 16 15 15 14 11 13 20 22 19 22 27 27
14 14 14 15 14 12 11 12 10 15 40 72 78 54 28 16 15 16 16 16 17 16 16 17 17 18 20 23 25 27 29 30 30 31 31 30 29 28 27 26 25 23 21 19 17 15 13 10 8 9 16 23 24 21 18 18 18 19 19 18 17 16 17 21 26 29 30 28 24 23 20 16 14 15 14 13 14 12 11 16 22 21 19 24 31
14 14 14 13 12 12 11 10 10 18 48 76 63 30 16 17 16 16 16 16 17 16 16 17 17 19 22 24 26 28 30 31 31 31 31 31 30 29 28 28 26 24 21 19 18 15 12 10 8 9 18 25 26 22 19 18 18 18 19 18 19 20 21 21 23 25 27 29 29 27 23 19 14 12 13 12 12 11 10 13 21 23 19 18 29
14 13 13 13 12 11 8 9 14 25 57 83 65 30 19 19 16 16 18 16 16 17 17 18 20 22 24 25 27 29 30 31 32 32 31 31 30 29 29 29 27 24 22 20 18 15 12 9 8 11 20 28 29 25 20 19 19 20 21 23 25 27 28 27 26 26 24 24 26 25 24 23 18 12 12 11 10 10 8 11 20 25 21 15 21
14 13 13 12 11 10 9 14 25 42 72 86 59 26 18 18 17 18 17 16 17 17 18 20 22 23 25 27 28 30 32 32 32 31 31 30 30 30 30 29 27 24 23 22 19 15 11 9 8 13 24 31 30 27 24 21 20 21 22 23 24 25 26 27 26 24 23 23 22 21 23 28 24 15 12 10 8 8 7 8 18 27 26 17 16
13 12 11 10 10 10 12 23 40 57 69 61 34 19 19 19 18 18 17 17 18 18 20 22 24 25 27 29 31 33 34 34 32 32 31 30 31 31 30 29 27 25 25 23 19 13 10 10 10 14 26 32 30 28 27 25 23 22 22 23 24 24 26 27 26 24 23 23 23 22 26 35 34 23 18 15 8 7 7 7 16 28 29 21 15
12 11 11 11 12 16 24 43 63 67 56 37 21 18 20 19 19 19 18 18 19 20 23 24 26 28 30 32 36 37 37 36 34 33 32 31 31 31 31 30 28 26 26 24 18 13 11 12 11 16 27 34 32 30 30 30 28 25 23 23 24 26 27 27 27 26 26 27 33 34 35 44 47 36 27 23 13 7 7 7 15 29 30 22 15
11 10 11 15 25 41 52 59 63 56 42 29 21 20 20 20 20 19 18 19 20 22 25 28 31 32 34 38 41 42 43 42 39 36 33 32 32 30 31 33 30 27 28 26 18 12 13 14 12 17 29 36 33 32 34 35 33 29 24 23 23 26 27 27 28 30 33 41 52 55 50 53 61 53 41 36 25 12 8 9 16 29 32 25 17
11 12 17 25 41 59 60 48 38 31 26 24 21 21 21 20 19 19 19 20 22 25 27 31 34 36 40 45 48 50 51 50 46 42 35 32 32 32 35 37 33 28 30 29 20 15 16 16 14 17 28 36 36 35 38 41 39 33 25 22 23 25 25 26 29 31 39 56 69 70 62 60 68 68 57 50 42 26 15 13 18 28 33 32 25
13 15 21 32 43 48 42 34 30 26 22 22 22 21 21 21 19 19 20 21 24 27 30 34 39 45 53 60 63 64 65 63 56 46 39 36 36 38 41 41 33 29 35 34 25 23 23 19 17 19 24 32 36 38 42 45 44 38 30 24 24 23 23 25 28 32 45 64 73 73 68 63 66 73 70 62 56 45 30 20 21 26 30 35 34
16 17 25 41 48 40 31 29 29 26 23 23 23 22 21 20 20 21 23 24 28 35 43 51 60 68 74 79 81 77 77 79 70 51 42 41 39 40 43 43 34 29 37 41 36 36 36 24 18 23 28 31 36 38 41 46 47 44 38 33 27 23 21 23 27 38 51 61 65 69 71 66 61 67 72 68 63 59 47 32 26 26 26 33 40
18 18 28 44 49 38 29 27 27 25 25 24 23 22 21 21 23 24 25 30 44 59 65 70 75 76 77 81 81 71 69 80 81 63 49 45 42 38 39 43 41 32 33 43 47 49 44 27 17 25 33 36 38 39 40 45 48 47 43 40 34 27 22 22 29 41 47 52 61 67 71 68 60 58 66 70 66 63 57 44 33 29 25 27 39
22 28 37 49 51 41 30 28 27 26 25 24 23 22 22 23 24 27 35 51 67 67 58 55 58 61 69 77 76 69 68 77 81 70 57 49 42 36 34 43 50 41 30 35 45 48 43 27 17 23 35 41 43 41 40 44 46 46 44 42 37 30 23 23 30 37 39 50 65 70 71 73 64 53 57 68 70 64 57 49 41 35 29 26 36
34 48 56 58 52 39 30 29 30 28 26 23 22 22 23 26 32 41 53 66 69 58 49 51 52 52 65 74 72 74 78 78 77 74 63 47 35 31 31 41 54 49 30 24 30 34 34 27 18 21 34 45 46 41 40 43 46 46 44 42 37 31 24 24 29 32 36 52 69 75 81 86 75 58 54 64 72 68 58 51 46 42 37 32 38
45 56 58 52 42 34 33 34 30 28 26 22 22 24 25 31 42 52 58 61 63 60 59 63 58 53 65 77 74 78 89 84 70 62 53 42 35 31 31 41 55 50 30 20 21 24 28 27 18 18 33 46 46 40 40 43 46 46 43 41 36 29 24 25 28 29 34 52 73 84 93 98 89 72 62 64 74 74 62 53 50 47 43 39 43
51 50 47 43 41 39 38 34 28 26 25 22 24 27 29 36 45 50 55 59 63 62 58 57 53 48 58 69 58 58 81 91 74 61 59 55 45 35 31 41 55 51 33 22 21 23 27 27 17 15 30 46 46 40 40 44 47 46 43 40 34 27 25 28 29 28 34 54 77 90 97 100 94 80 67 64 73 77 67 56 52 50 46 43 46
50 47 48 48 47 43 36 30 28 27 25 26 29 30 34 44 50 53 59 62 63 63 57 51 46 41 43 44 32 34 71 99 92 82 81 72 53 37 32 40 51 49 36 25 22 25 28 27 18 14 26 44 47 42 42 46 47 46 43 39 33 26 27 31 27 25 36 56 73 84 93 99 93 77 65 62 71 79 72 59 53 52 48 44 47
52 53 57 55 49 43 36 33 31 29 28 33 36 37 42 51 55 57 61 61 59 61 56 47 43 41 36 31 24 28 54 83 95 98 94 78 55 38 32 38 45 44 36 27 25 28 28 25 18 13 23 45 51 46 46 46 45 46 43 38 32 26 26 28 23 25 41 60 72 83 95 102 96 79 64 62 71 79 77 65 55 53 51 47 47
61 61 61 57 50 44 41 38 36 34 36 41 44 45 49 53 53 54 56 57 55 54 50 44 43 43 36 29 23 17 20 38 65 82 77 59 45 37 34 37 42 43 39 33 30 29 26 23 19 14 24 49 59 53 48 47 46 46 43 38 33 27 24 22 19 28 49 64 75 89 98 102 99 85 68 67 74 78 78 70 57 51 54 53 50
68 64 60 56 51 49 49 44 41 41 44 49 50 49 50 51 51 51 53 53 50 47 45 43 42 40 35 28 20 13 7 10 22 32 30 26 32 39 36 34 40 45 42 38 36 33 26 23 22 16 21 47 64 59 50 49 50 47 42 38 34 27 22 19 20 35 57 69 79 94 99 99 101 91 75 74 82 82 77 72 62 58 62 61 54
75 67 62 59 53 52 52 48 48 50 51 51 51 50 50 50 49 52 53 50 46 45 44 42 38 34 30 21 13 9 9 9 9 12 16 23 33 37 31 30 42 49 44 41 44 41 32 28 27 19 16 36 61 64 56 54 53 46 40 38 35 27 20 17 23 42 62 71 82 96 100 98 101 97 84 82 91 90 80 73 68 67 72 67 54
76 69 68 68 60 56 58 57 57 57 53 51 53 53 52 50 51 56 55 48 46 47 44 37 31 25 20 14 10 9 9 9 11 15 21 26 30 29 24 30 46 54 51 52 53 47 39 36 34 24 14 24 53 71 68 59 52 44 39 38 34 26 17 15 27 47 63 71 80 93 101 99 99 101 93 89 97 99 89 82 79 81 86 76 54
80 80 80 80 73 69 70 69 66 63 60 60 62 62 60 60 63 64 58 50 47 44 35 27 21 17 13 10 9 9 9 10 15 21 25 28 29 25 22 31 50 61 61 58 52 47 46 44 38 30 17 17 47 77 76 59 47 40 39 38 33 24 15 15 29 48 61 68 75 86 98 101 98 101 99 94 99 101 92 83 80 81 85 74 53
95 90 82 82 80 75 74 74 72 68 67 67 70 72 69 64 60 57 51 46 40 31 22 18 14 11 10 9 8 10 12 15 20 23 26 28 26 25 28 37 51 58 57 54 50 51 55 49 38 34 25 20 47 80 76 54 43 41 39 38 31 20 14 17 29 45 56 64 69 77 91 100 99 100 100 97 99 99 90 81 76 67 58 47 41
74 64 63 74 77 73 73 76 76 73 72 74 77 75 63 50 45 45 42 35 27 19 14 13 10 9 9 8 10 14 17 19 20 18 20 21 20 26 37 48 55 57 55 53 51 53 55 45 33 37 38 31 50 79 73 49 43 44 40 37 28 17 14 19 27 38 49 57 62 66 80 95 99 99 100 99 97 95 92 88 79 60 39 25 25
48 53 67 78 81 82 86 88 85 80 75 73 69 58 44 36 35 34 29 22 17 13 11 9 8 9 10 11 16 19 17 17 15 13 15 19 20 25 36 45 54 56 52 48 47 48 47 35 23 37 54 49 54 75 72 51 47 48 42 35 26 15 14 19 24 31 40 50 57 61 69 85 96 99 100 100 96 92 92 91 77 53 34 28 26
74 80 87 90 92 96 98 95 86 74 64 56 46 36 31 28 25 21 17 14 12 10 9 8 8 11 16 18 20 19 17 17 17 16 19 24 28 36 42 46 51 52 46 42 41 39 42 33 18 31 60 63 58 70 73 59 53 52 44 35 25 15 15 19 21 25 33 42 51 56 62 74 87 95 99 101 98 93 93 94 81 52 30 26 29
97 96 96 97 99 101 99 92 78 63 52 42 31 25 23 19 15 14 11 10 10 8 7 9 13 18 22 21 19 19 22 24 24 24 30 36 41 52 61 62 61 55 46 42 39 39 48 45 22 25 57 70 64 69 75 67 60 58 51 39 26 17 15 18 19 21 27 35 44 52 58 65 74 86 95 101 100 96 95 96 87 64 37 20 20
95 91 90 91 97 101 96 81 64 50 40 30 20 17 16 13 12 12 10 9 9 7 8 14 21 23 23 20 18 22 28 32 32 32 39 48 57 66 73 72 67 57 48 44 41 37 40 34 20 28 61 76 70 73 78 73 66 64 57 44 29 18 15 17 18 19 23 29 38 46 54 60 66 74 85 96 101 99 98 98 91 77 58 33 17
84 83 85 90 96 95 79 60 45 35 26 19 15 14 13 12 12 12 10 9 7 7 14 23 26 24 23 21 19 23 32 38 38 35 38 46 54 61 65 65 61 55 48 42 36 28 26 26 28 46 72 82 79 81 84 79 71 65 59 48 33 20 16 16 17 18 21 25 33 40 47 55 62 66 72 85 97 100 99 99 94 84 74 55 28
72 77 82 84 82 71 53 39 30 22 16 14 14 13 12 13 13 11 10 8 7 13 24 29 26 24 24 23 22 29 40 45 42 38 38 40 42 47 52 55 58 54 47 42 42 46 55 62 61 66 81 92 93 92 90 84 74 63 56 49 36 22 17 15 15 18 20 22 28 35 40 46 56 62 65 72 86 97 100 100 96 90 86 77 57
67 71 72 69 60 49 39 30 21 15 14 15 15 14 15 15 13 11 7 5 11 24 32 30 27 27 29 28 29 37 48 50 45 41 41 39 39 42 43 49 56 54 51 59 71 78 84 89 85 82 90 99 100 96 92 86 74 59 51 48 39 27 19 16 15 17 19 20 24 30 35 39 46 55 61 63 71 87 98 101 99 96 93 90 82
69 69 65 57 46 37 32 26 20 17 18 18 17 19 19 16 12 9 5 9 23 35 35 30 31 33 33 33 35 41 50 52 48 45 43 40 41 44 44 48 56 57 58 73 88 86 80 83 88 92 96 100 100 98 93 84 70 55 48 47 42 32 24 19 17 17 18 20 22 25 30 35 38 45 53 57 59 70 86 97 101 100 96 93 92
73 69 63 54 45 40 38 35 32 29 26 25 24 22 18 12 9 9 12 22 35 39 36 34 38 38 35 33 35 41 50 54 50 47 44 40 41 46 48 52 60 63 61 63 68 68 69 78 90 98 100 100 100 99 91 78 62 51 47 47 43 37 30 24 21 19 19 20 21 22 25 30 33 37 44 50 52 56 67 82 95 101 100 98 96
82 76 72 65 58 53 48 46 44 40 33 30 26 18 11 10 13 20 29 37 40 39 39 41 42 39 34 33 36 43 52 55 52 49 45 40 40 44 48 54 64 71 69 61 58 62 72 83 92 98 100 99 98 92 80 66 55 49 47 46 44 40 36 31 27 24 22 21 22 22 23 25 28 31 36 42 46 49 52 62 77 90 97 101 100
89 84 82 73 59 49 44 44 43 39 33 27 19 12 11 19 29 37 42 44 43 42 44 45 43 38 35 36 40 47 52 54 54 51 48 47 48 47 47 53 61 69 74 75 76 82 89 92 93 94 92 91 89 81 68 58 52 49 47 46 44 41 39 36 32 29 27 25 24 23 23 22 23 26 30 34 40 43 45 49 58 70 83 94 100
86 71 62 53 39 30 30 31 29 26 24 19 14 15 27 42 49 50 49 49 49 48 47 44 40 37 37 40 46 50 51 51 52 52 53 58 63 63 61 61 63 70 80 88 91 94 97 97 96 93 89 83 79 73 66 60 55 50 46 44 42 39 36 34 33 30 28 27 26 24 23 22 21 21 24 28 33 37 40 42 46 53 62 74 86
64 45 36 30 20 15 17 18 17 18 21 23 26 37 51 58 57 54 56 57 55 50 45 41 39 38 42 47 50 51 51 49 49 51 55 61 70 76 76 74 73 78 88 96 98 97 98 99 99 96 92 86 80 75 70 65 59 54 50 45 42 38 35 32 30 28 26 26 25 23 22 22 20 18 19 22 26 30 35 37 39 44 50 56 65
30 26 23 17 10 10 12 12 13 21 32 42 49 55 56 54 53 59 66 64 56 47 41 39 40 43 48 52 52 50 48 47 48 52 57 60 65 70 74 73 73 76 82 89 93 94 96 99 99 95 92 91 89 85 79 73 66 59 53 48 43 40 36 32 29 27 26 25 24 23 22 21 20 19 18 18 20 23 28 31 34 36 42 48 52
18 18 16 12 10 11 11 12 19 32 47 56 57 55 53 54 60 68 69 61 50 42 38 38 44 49 52 54 52 49 46 45 46 50 55 56 56 56 57 58 59 62 66 70 71 73 77 82 84 88 93 97 96 92 86 79 70 60 52 46 43 39 36 33 29 27 26 25 24 23 22 20 20 19 18 17 17 18 20 24 28 29 32 40 47
16 14 14 13 12 11 14 25 38 50 58 60 57 57 60 64 64 63 57 48 42 39 38 40 46 51 53 53 51 49 46 45 44 46 49 50 50 48 47 46 45 46 47 47 46 48 52 54 59 69 82 91 94 92 85 74 62 52 45 40 37 34 32 30 27 25 23 23 22 21 20 19 18 18 17 16 15 15 15 17 21 23 24 28 37
15 12 11 11 9 11 23 39 52 58 60 59 58 60 62 61 55 49 42 37 36 38 40 42 45 49 50 49 46 45 45 44 42 42 43 44 44 43 42 41 39 38 37 35 33 34 37 39 42 50 60 70 77 80 75 65 55 47 40 36 33 31 28 26 24 23 21 19 18 17 17 16 15 15 15 14 13 12 13 13 14 16 18 20 25
10 7 11 17 22 28 38 48 54 59 61 60 59 57 54 48 43 37 33 30 30 33 37 40 42 47 50 49 45 43 43 41 39 38 39 39 39 39 38 37 36 35 33 32 31 30 31 32 34 38 43 48 53 56 56 54 49 44 38 34 30 28 25 24 22 21 19 18 17 16 15 14 14 13 13 13 12 11 11 10 11 12 13 13 16
9 17 29 39 44 48 54 58 59 61 60 57 52 47 41 35 31 27 26 25 25 26 28 31 35 42 48 49 45 43 42 40 38 37 36 36 36 35 33 33 32 31 30 29 29 29 28 28 29 31 33 36 38 39 40 41 39 37 35 32 28 26 25 23 21 20 19 18 17 16 14 13 13 12 12 11 11 10 9 9 9 9 10 10 11
33 39 45 50 54 59 63 63 59 53 49 44 39 34 30 27 25 23 23 23 23 23 23 24 28 35 43 47 46 45 44 42 39 37 36 36 34 33 31 30 29 28 28 28 28 29 29 29 30 30 31 32 34 35 35 36 36 35 33 31 28 26 25 23 21 20 19 17 16 15 14 13 12 11 11 10 9 9 9 8 7 7 8 8 8
48 47 51 58 61 60 55 50 44 38 34 31 29 28 27 25 24 24 24 25 24 24 24 24 25 30 37 43 45 46 45 43 41 39 36 35 33 31 30 30 31 31 30 30 30 30 30 30 30 31 31 32 34 35 35 35 35 34 33 32 30 28 26 24 22 20 18 16 15 14 12 11 10 9 9 9 8 7 7 7 7 7 6 6 6
55 59 64 63 56 45 38 34 31 28 26 25 25 25 25 24 24 25 26 27 27 26 26 26 27 29 34 40 45 46 45 43 41 38 35 33 32 32 31 31 32 32 32 31 30 30 29 28 29 31 32 33 33 34 34 34 34 32 31 30 28 25 23 21 19 16 14 13 12 11 10 9 9 8 7 7 7 7 6 6 6 6 6 6 5
69 65 58 47 37 31 29 26 24 23 23 23 23 24 24 24 25 26 29 30 31 32 33 35 35 35 39 44 46 45 44 41 37 35 32 31 32 34 34 33 33 31 28 26 24 23 22 22 23 25 28 29 30 30 29 28 27 26 24 22 20 18 16 14 12 11 10 9 9 8 8 7 6 6 7 6 6 6 6 6 6 5 5 5 5
Wind_Speed
26 27 26 25 25 25 25 25 25 25 25 25 26 27 27 28 29 29 29 29 29 30 31 32 33 33 34 34 35 35 36 36 37 38 38 38 39 39 40 40 40 41 41 42 42 43 44 45 45 45 43 40 38 37 37 36 36 35 34 34 35 35 34 33 32 30 31 34 36 38 40 42 43 45 45 43 41 41 43 44 45 48 49 49 50
26 28 28 27 27 27 26 26 26 26 25 25 27 28 28 28 29 30 29 29 30 31 32 32 33 34 34 34 35 36 37 37 38 38 39 40 40 40 40 41 41 41 42 42 42 43 44 45 45 45 42 39 37 37 37 36 36 35 34 33 33 35 34 32 31 30 29 32 35 36 39 41 42 44 46 45 44 42 42 43 44 47 49 49 50
27 28 28 28 28 28 27 27 27 27 25 25 27 29 30 30 30 30 30 30 30 31 32 33 33 34 34 34 35 36 38 39 40 40 40 40 41 40 40 41 42 42 42 42 42 43 44 44 44 44 41 38 37 37 36 35 34 33 33 33 33 34 35 33 30 30 29 30 33 35 37 39 40 43 46 46 45 45 43 42 43 46 48 50 50
27 27 28 27 28 29 29 28 27 26 25 25 28 30 31 31 31 31 31 31 31 31 32 33 34 34 34 35 36 37 38 39 40 41 41 41 41 41 41 42 42 43 42 42 42 43 44 44 43 42 39 37 36 35 35 34 33 32 33 33 33 33 35 34 31 30 30 30 32 34 36 38 38 41 45 46 46 46 45 43 43 45 47 49 50
27 27 27 27 28 29 29 28 27 26 25 26 28 30 31 31 31 31 31 31 32 32 33 34 34 34 35 35 37 38 39 39 40 41 42 42 41 41 41 42 42 42 42 42 42 42 43 43 42 41 38 36 34 34 34 33 32 32 32 33 34 34 34 34 33 32 32 31 32 34 36 37 37 38 43 45 45 46 46 45 44 44 46 48 49
26 27 27 27 28 29 29 28 28 27 26 27 29 31 31 31 31 32 32 33 33 34 34 34 34 35 35 36 38 39 39 40 41 41 42 42 41 41 41 41 41 41 41 41 41 41 41 42 41 40 37 35 34 34 34 34 33 32 32 33 34 34 34 34 34 34 34 33 33 34 36 38 37 37 40 43 44 45 46 46 45 44 45 47 48
27 28 28 27 27 27 27 27 27 27 27 28 31 32 32 33 33 33 34 34 34 35 35 35 35 35 36 38 39 40 41 41 41 41 41 41 41 41 41 41 40 40 40 40 39 39 40 41 40 39 37 35 34 34 34 34 34 32 32 32 33 34 34 34 34 35 35 34 35 35 36 37 37 37 38 40 42 44 46 46 45 44 45 46 48
28 29 28 27 26 26 26 27 26 26 27 30 32 32 32 33 34 35 34 34 35 35 35 35 35 36 38 40 41 41 41 42 41 40 40 40 41 41 40 40 40 39 39 38 38 38 39 40 39 38 36 35 35 35 35 35 34 33 33 33 33 34 34 34 35 36 36 35 35 35 35 36 37 37 37 39 40 42 44 45 45 44 45 46 47
29 28 27 26 25 25 26 26 26 27 28 30 31 31 32 34 35 35 35 35 35 36 35 35 36 38 40 41 42 41 42 42 41 41 41 40 40 39 40 40 39 39 38 37 37 37 37 38 38 38 36 35 35 35 35 35 34 34 34 34 34 34 34 35 36 36 36 36 36 35 34 36 37 36 37 38 39 40 43 44 44 44 45 45 46
28 27 25 25 25 26 26 27 27 29 29 30 31 32 33 35 35 35 35 36 36 36 36 36 38 40 42 43 42 42 42 42 42 41 40 40 39 39 40 40 40 39 38 36 36 36 37 38 38 38 37 36 35 35 35 35 34 35 35 35 35 35 35 36 37 37 38 37 37 36 35 35 36 36 37 38 39 40 42 44 44 45 45 45 46
27 25 24 25 26 27 27 28 28 29 30 31 32 33 35 36 36 36 36 37 36 36 36 38 40 42 44 45 45 44 44 43 43 42 40 39 39 39 40 40 40 39 37 35 34 35 37 37 38 38 37 36 36 35 34 34 34 34 35 35 35 36 36 37 38 39 39 39 38 37 34 33 34 36 37 37 38 39 42 44 44 44 45 45 45
26 26 26 27 28 28 29 29 28 29 30 31 33 34 36 37 37 38 38 38 37 36 37 40 43 44 46 49 49 48 47 45 44 43 40 38 38 39 40 39 38 38 36 34 33 34 36 37 38 38 38 37 37 36 34 34 34 34 34 35 35 36 37 38 39 40 40 40 39 38 35 30 31 34 36 37 37 39 41 44 45 45 45 45 45
29 27 27 27 27 28 29 29 29 30 31 33 34 35 37 38 39 40 41 40 39 38 40 44 46 48 50 52 52 52 51 48 46 42 39 37 37 38 39 37 36 37 36 34 33 34 36 38 38 38 38 38 37 36 34 34 34 33 33 34 35 36 37 39 40 41 41 41 41 40 38 32 29 31 35 36 37 38 40 43 45 45 45 45 45
30 28 28 28 29 28 28 29 30 31 33 34 35 36 37 38 39 41 42 41 41 42 44 45 46 46 47 46 46 48 49 49 45 41 38 36 36 37 37 36 36 36 36 35 35 36 38 39 38 37 38 38 38 37 35 34 34 33 34 35 36 37 38 40 41 42 42 42 42 42 41 37 31 29 32 34 36 38 40 42 45 46 45 45 45
32 30 30 30 30 29 28 29 30 32 33 34 35 37 38 38 39 41 41 41 41 42 43 44 43 43 42 40 42 46 49 48 43 39 37 35 34 35 37 37 37 37 36 37 37 39 40 40 38 37 37 37 37 37 35 34 34 34 34 35 36 37 39 41 41 42 42 43 43 43 42 41 36 29 28 31 34 38 41 42 44 46 46 46 45
33 32 32 31 30 29 28 29 31 32 33 34 36 37 38 38 39 40 40 40 40 42 45 45 45 46 44 41 43 49 50 45 39 36 35 33 32 34 37 38 38 37 37 38 39 40 41 39 37 37 37 37 36 36 35 34 33 34 34 35 36 37 39 40 41 41 42 42 43 43 43 42 39 32 26 27 32 37 42 44 45 46 46 46 45
34 31 30 29 28 28 28 29 31 32 33 35 36 38 39 39 39 39 39 40 42 46 48 48 47 47 45 42 43 46 44 39 34 32 31 30 31 33 36 38 38 37 37 38 39 40 40 39 37 36 36 36 36 36 35 33 33 34 35 34 35 36 38 39 40 41 41 41 42 43 43 42 42 37 29 25 28 35 41 45 46 46 46 46 46
34 31 30 29 28 28 28 29 31 33 34 36 37 39 40 39 38 39 41 43 46 48 49 49 48 47 44 43 43 43 40 34 28 26 27 29 31 33 35 37 37 36 36 38 39 39 39 38 37 37 36 36 36 35 34 33 33 33 34 34 34 35 36 38 38 39 40 40 41 42 42 42 44 42 36 28 27 33 40 44 46 46 46 46 46
32 31 30 29 29 29 29 30 33 35 36 37 38 40 41 41 39 40 43 44 46 47 48 49 49 46 43 44 46 45 39 32 27 27 28 30 33 35 35 36 35 35 37 39 39 38 37 37 37 37 36 36 35 35 34 33 33 33 33 33 33 34 35 36 37 37 38 38 39 39 40 41 43 43 38 31 27 31 38 42 45 45 45 46 47
31 31 30 30 29 29 30 32 34 36 37 38 39 40 41 42 41 42 43 44 46 48 48 50 50 47 45 47 49 47 40 35 34 34 33 32 37 38 36 35 35 36 38 39 38 37 37 37 37 37 36 35 34 34 33 33 33 33 33 33 32 33 34 36 36 36 36 36 37 38 38 38 40 40 36 30 26 30 36 40 42 42 43 44 46
31 32 31 29 29 30 33 35 36 36 37 37 38 40 40 41 41 42 43 44 47 50 51 51 50 49 48 49 49 46 39 38 38 36 33 37 44 43 37 34 35 38 39 39 37 37 37 37 38 37 35 34 33 32 32 32 32 32 33 33 32 32 33 35 35 36 36 36 36 36 36 34 37 38 34 29 26 30 36 39 41 40 40 41 43
31 31 29 28 30 33 35 36 36 36 37 37 38 40 40 40 41 41 43 46 50 52 53 52 51 50 50 51 51 48 43 42 42 41 43 49 51 46 40 36 36 38 38 38 37 36 37 37 37 36 34 33 33 32 31 32 32 32 32 32 32 32 33 33 33 34 35 35 35 35 33 31 35 38 35 29 25 29 37 40 40 39 38 38 41
29 27 26 28 32 36 37 37 37 37 37 38 39 39 39 39 41 42 45 49 52 53 53 52 52 52 52 52 52 51 49 47 47 48 52 55 52 47 43 39 38 37 37 37 37 37 37 37 36 35 34 33 32 31 31 31 32 31 31 30 31 32 32 32 32 32 32 33 34 33 30 29 32 36 35 28 23 28 36 40 40 38 36 36 39
23 21 22 26 30 36 39 38 38 38 38 39 39 38 39 40 43 45 48 51 53 53 53 53 53 54 54 54 53 53 52 52 51 52 52 52 51 48 44 40 38 37 37 37 37 36 37 37 35 34 34 33 32 31 31 32 32 30 29 29 30 31 31 30 30 29 29 31 33 32 29 27 28 32 33 26 20 25 33 37 37 35 34 35 38
18 22 30 30 30 34 38 38 38 38 38 38 39 40 42 44 46 48 50 52 52 52 52 53 54 54 55 55 55 55 55 54 54 54 53 52 50 47 42 39 37 35 34 35 36 37 37 36 34 34 34 33 32 30 31 33 32 29 27 28 29 29 29 28 27 27 28 29 32 31 28 26 25 27 30 24 17 21 27 29 30 31 32 33 36
21 30 36 33 31 32 36 38 38 38 37 39 41 44 46 48 49 50 51 51 52 52 53 54 55 55 55 55 56 56 56 56 55 54 52 51 49 45 42 39 36 34 33 35 37 38 37 35 34 34 34 33 31 30 31 32 30 27 26 26 27 28 27 26 24 24 26 28 30 31 29 25 23 24 26 22 15 16 19 21 23 27 29 31 34
33 40 41 38 36 34 34 37 37 37 40 44 46 48 49 49 50 51 52 52 52 53 54 54 54 54 55 55 56 56 56 55 54 53 51 49 48 45 42 39 37 36 36 37 38 37 36 35 34 34 34 32 29 29 30 29 27 25 25 25 26 26 25 23 22 23 25 26 28 31 30 27 23 21 21 20 14 13 15 16 18 22 25 28 33
52 54 52 50 43 36 34 35 36 39 44 47 48 49 50 50 51 52 52 53 53 53 53 53 53 54 54 54 54 54 53 53 52 51 50 48 46 44 42 40 38 36 36 36 37 37 36 35 34 33 33 30 28 27 28 26 24 23 23 24 25 24 23 22 21 22 23 25 27 30 31 30 26 20 17 15 14 13 13 13 15 18 21 26 33
57 57 53 46 39 35 35 37 39 43 45 46 47 49 50 50 51 51 51 52 52 52 52 52 53 53 52 52 51 50 50 50 49 48 47 44 42 40 39 38 37 35 35 35 36 36 36 35 33 32 31 29 27 26 26 24 23 22 22 23 23 23 21 21 21 22 23 24 26 28 30 31 29 23 15 10 12 13 12 13 16 17 20 26 33
55 51 45 39 37 37 39 42 44 45 44 46 48 49 50 50 50 50 51 51 51 50 51 51 52 51 50 49 48 47 46 46 45 43 41 40 38 37 36 36 35 34 34 34 35 35 35 34 32 30 29 27 26 25 24 23 22 22 22 22 22 22 20 20 20 21 22 23 25 26 28 30 31 27 19 9 7 12 13 15 17 18 21 26 32
47 43 41 40 41 42 44 47 48 46 46 48 49 50 50 49 49 50 50 50 49 50 50 50 49 48 47 46 44 43 42 42 41 39 37 36 36 36 34 34 33 33 33 33 33 32 32 32 30 28 27 26 25 24 23 23 22 23 23 22 22 21 20 20 20 20 21 22 24 26 27 28 30 30 24 14 4 8 13 15 17 19 21 27 32
46 46 47 47 47 48 49 50 50 49 49 49 49 50 50 49 49 49 49 48 49 49 48 47 45 45 44 43 41 40 39 39 38 37 35 34 34 34 33 32 32 32 32 32 31 30 30 30 28 26 25 24 24 23 23 22 22 23 24 23 22 21 20 20 19 20 20 22 23 24 25 27 29 30 28 21 11 1 10 15 17 19 21 25 30
51 53 54 52 51 51 51 51 50 49 48 48 49 50 49 48 48 48 48 48 48 47 45 43 43 42 41 40 40 39 38 37 36 35 35 34 33 33 32 31 31 31 31 30 30 29 29 28 26 24 23 22 22 23 23 23 23 23 24 23 22 21 20 20 19 19 19 20 21 22 23 24 26 28 29 27 21 8 5 14 17 20 22 24 28
53 54 53 52 51 51 50 50 49 48 47 48 49 49 48 48 48 48 48 48 47 45 43 42 41 40 39 39 40 39 38 36 34 34 34 34 33 33 31 30 30 30 28 27 27 27 27 26 25 23 22 21 21 23 24 23 23 23 23 23 22 21 20 19 19 19 18 18 19 21 21 22 23 25 27 28 26 18 5 9 16 20 22 23 26
52 51 50 50 50 49 48 48 47 47 47 47 48 49 49 48 47 48 48 47 45 43 41 40 39 38 39 39 40 39 37 34 33 33 33 34 33 32 31 29 29 28 25 23 23 24 24 24 23 22 22 22 22 23 23 23 22 22 22 22 22 20 20 19 18 18 17 17 18 19 20 20 21 21 23 24 26 24 15 3 12 18 21 24 26
51 49 48 49 49 48 47 47 47 48 47 47 48 49 49 48 48 48 47 45 42 41 40 39 39 38 39 40 40 38 35 32 31 32 32 32 31 30 29 28 27 25 22 21 22 23 24 23 23 22 22 22 22 22 22 22 22 21 21 22 21 20 19 18 17 17 17 17 17 17 18 19 19 20 21 21 22 24 21 11 4 13 17 21 26
50 49 48 49 48 47 47 47 48 48 48 49 49 50 49 49 49 47 44 41 39 39 39 39 39 39 40 40 38 36 33 31 30 30 30 29 29 29 27 27 25 23 21 22 23 24 24 23 21 21 22 22 21 21 21 21 21 20 21 21 20 19 18 17 17 17 16 16 16 16 17 18 18 18 20 20 20 21 22 18 9 4 11 15 21
46 46 47 46 45 45 46 47 48 48 49 49 49 49 50 49 46 42 39 38 37 38 39 39 39 40 40 38 36 34 31 29 28 28 28 28 28 28 27 27 25 23 22 23 23 23 23 21 19 20 21 22 20 20 20 20 20 19 19 19 19 19 18 17 17 17 16 16 16 16 16 17 17 17 17 18 19 19 19 20 17 8 1 8 15
40 41 42 41 42 43 45 46 47 48 48 49 49 49 48 46 42 39 38 37 37 38 39 39 40 39 38 36 34 32 30 28 27 27 27 28 28 28 28 27 25 23 22 22 22 22 20 19 18 18 19 20 19 19 19 19 19 18 18 18 18 18 17 17 17 17 17 17 16 16 16 16 16 16 16 16 17 17 16 17 17 15 9 2 7
38 39 39 41 43 44 45 46 47 47 48 48 48 47 45 42 40 39 38 37 38 38 38 39 39 38 36 35 33 31 29 27 26 26 26 26 27 27 27 26 24 21 20 20 20 20 19 18 17 18 19 19 19 19 19 19 18 18 17 18 18 17 17 17 17 17 17 17 17 17 17 16 16 15 15 15 15 15 15 15 14 14 14 10 4
45 44 43 43 44 44 44 45 46 47 47 47 45 43 42 41 40 39 38 37 37 38 38 38 37 36 35 33 31 29 28 27 26 25 25 24 24 24 23 22 21 20 19 19 19 19 19 19 19 19 20 20 20 19 19 19 19 18 18 18 18 18 18 18 18 18 18 18 18 18 18 18 17 16 15 14 14 14 14 15 14 13 13 12 10
49 48 46 45 43 43 43 44 45 46 45 43 42 41 40 39 38 37 36 37 37 38 37 37 36 34 32 30 28 27 26 25 25 24 24 23 23 22 21 21 21 21 20 19 20 20 21 22 22 22 22 21 21 20 20 20 20 19 19 19 19 20 20 19 19 19 19 20 20 19 19 19 18 18 16 15 14 14 14 14 14 13 12 12 11
48 47 46 44 43 43 43 44 43 43 41 41 40 39 38 36 35 34 35 36 37 36 36 35 34 32 29 28 27 26 25 25 24 23 23 23 23 22 21 21 21 21 20 19 19 20 22 22 23 22 22 21 22 21 21 20 20 19 19 19 19 20 21 21 21 21 20 21 21 20 20 20 20 19 19 17 15 14 14 13 14 14 13 12 11
47 46 45 44 43 42 42 41 40 39 39 38 37 36 34 34 33 34 34 35 35 35 35 34 32 30 28 27 26 26 25 24 23 23 23 23 22 22 21 21 21 20 19 19 19 19 20 20 21 20 20 20 21 21 21 20 20 20 20 20 20 21 21 22 22 22 21 21 22 21 21 21 21 21 20 19 17 16 15 14 14 14 14 13 12
47 45 44 43 42 41 40 38 37 37 36 35 34 34 34 34 34 33 33 33 34 34 34 33 31 29 28 27 27 26 24 23 23 23 23 22 21 21 21 21 21 20 20 19 19 20 20 19 19 19 19 19 19 20 20 21 21 21 21 21 21 22 22 23 23 23 23 23 23 22 22 22 22 22 21 21 19 18 16 15 14 14 15 15 14
45 43 42 41 40 38 36 35 34 34 34 33 34 34 34 33 33 32 32 32 33 33 33 32 31 29 27 26 27 26 25 24 23 23 22 22 21 20 21 21 21 20 20 20 20 20 21 20 20 19 19 19 19 20 20 21 21 22 22 23 23 23 23 24 24 25 25 24 24 24 23 23 23 23 22 22 21 19 18 17 16 15 15 16 15
42 41 39 37 34 33 32 32 32 32 33 34 34 34 33 33 32 32 32 32 32 32 32 32 30 28 26 25 26 26 25 25 24 24 23 22 21 21 21 21 21 21 21 21 21 21 22 22 21 21 21 21 21 21 21 22 23 23 24 24 25 25 25 25 25 26 26 26 26 25 25 25 24 24 23 23 22 21 20 19 18 16 16 17 17
38 36 33 31 30 30 30 31 32 33 33 34 33 33 32 31 31 31 32 32 32 31 31 30 29 27 24 24 24 25 24 24 24 24 23 23 22 22 22 22 22 22 22 22 22 23 23 24 24 24 24 24 24 24 24 25 25 25 25 26 26 26 26 26 27 27 27 27 27 27 26 26 25 25 24 23 22 22 21 20 19 18 17 17 18
32 30 29 29 29 30 31 32 33 33 33 33 32 31 30 30 30 30 30 30 30 29 29 29 27 25 23 22 22 23 23 24 24 24 24 23 23 23 23 23 24 24 23 23 24 24 24 25 26 26 27 27 27 27 27 27 27 27 27 27 27 27 27 28 28 28 28 28 27 27 27 26 26 25 24 23 22 22 22 21 21 20 19 19 19
28 28 28 29 30 31 32 32 33 33 33 32 31 30 29 29 29 29 29 28 27 27 28 27 26 24 22 21 21 22 23 24 24 25 24 24 24 24 24 24 24 24 25 25 25 26 26 26 27 27 28 28 28 28 28 28 28 28 27 27 27 27 28 28 28 28 28 27 27 26 26 26 25 25 24 23 22 22 22 22 22 21 20 20 20
27 28 29 30 30 31 31 32 32 32 32 32 31 30 30 29 29 29 28 27 26 26 27 27 26 25 23 23 23 24 24 25 25 26 25 24 24 24 24 24 25 25 25 25 25 26 27 28 27 27 27 27 27 27 27 27 27 27 27 27 27 26 25 25 25 25 25 25 25 24 24 24 24 24 24 23 22 22 22 23 23 22 22 21 22
Wind_Direction
293 296 298 298 296 294 293 294 296 297 299 298 297 299 303 308 309 309 310 312 311 310 309 308 306 305 306 307 308 310 311 312 313 315 317 318 319 319 320 319 319 319 320 321 321 321 320 320 320 320 318 315 312 310 309 308 307 306 303 300 298 296 294 292 288 281 274 269 264 259 255 252 252 254 252 247 244 242 239 236 234 233 232 232 234
292 294 296 296 294 293 294 295 294 294 296 296 296 300 305 309 310 310 312 313 311 309 308 307 306 306 307 308 308 309 310 313 316 318 319 319 319 320 320 320 320 320 320 321 321 320 320 320 320 319 317 314 310 308 308 307 307 306 305 302 300 298 296 294 290 285 278 274 270 266 261 255 251 252 252 249 246 243 240 237 234 232 231 231 232
291 292 293 293 293 293 294 292 291 294 295 294 297 301 304 308 311 311 312 311 309 307 306 305 305 305 306 307 308 310 312 316 319 319 319 319 320 321 321 320 320 320 321 321 321 320 320 320 320 318 316 313 309 307 306 306 306 306 305 304 301 300 298 297 294 290 283 278 274 270 266 261 255 252 251 250 247 244 241 238 234 232 231 230 231
288 289 289 290 292 292 292 291 293 295 293 291 296 299 302 306 309 309 309 308 307 305 304 303 303 303 304 306 309 311 315 318 319 319 320 321 321 321 320 320 320 320 321 321 320 319 319 320 319 317 315 312 308 306 305 305 306 305 304 303 301 300 299 299 298 294 289 283 279 276 270 265 259 254 251 249 248 245 242 238 235 232 231 230 229
286 286 286 288 289 290 291 293 294 294 291 291 297 300 301 305 306 306 307 306 304 301 300 300 300 302 305 307 310 312 316 319 320 320 321 321 321 321 320 320 319 319 319 319 319 319 319 319 318 316 314 311 307 306 306 306 306 306 304 302 301 300 299 299 298 295 292 288 283 280 276 270 263 257 252 248 247 245 243 240 237 233 231 230 229
285 284 284 285 286 289 292 294 294 292 290 294 298 300 302 304 304 305 305 303 301 299 299 300 301 303 306 308 310 313 317 320 321 322 322 321 320 319 319 318 318 317 317 317 318 318 318 318 317 315 313 310 307 306 307 307 307 306 304 302 301 301 300 299 297 296 294 292 288 282 278 274 267 260 253 248 245 244 242 240 237 235 231 229 228
283 281 281 283 286 290 293 294 293 289 290 295 297 298 301 303 302 302 301 300 300 300 301 302 304 305 307 308 311 315 318 320 321 321 320 319 319 318 317 317 316 315 315 315 316 317 318 318 316 314 312 309 307 306 306 306 306 306 305 303 301 301 300 300 298 297 296 294 290 285 280 276 270 262 256 250 245 243 242 240 238 236 233 229 227
279 279 281 284 288 290 290 291 290 287 289 293 294 295 299 300 299 299 299 299 301 302 304 306 307 308 309 310 313 316 318 319 319 319 319 318 318 317 316 315 314 313 313 313 315 317 318 317 315 313 311 308 306 306 305 305 306 306 305 304 302 302 302 301 299 298 297 295 292 287 282 278 271 264 258 252 246 243 241 239 237 236 234 231 227
277 279 283 286 287 285 285 287 287 287 290 290 291 295 297 297 297 297 298 300 302 304 307 309 310 310 310 312 315 317 317 317 317 318 317 317 317 315 314 313 312 311 311 313 315 317 318 317 314 311 309 307 306 306 305 304 305 306 306 305 304 304 304 303 302 301 300 298 295 291 285 280 273 265 258 254 248 243 241 239 236 235 234 231 228
279 283 285 282 280 279 281 284 285 287 289 290 292 295 295 294 295 297 298 300 302 306 310 314 314 313 313 314 315 315 315 315 316 315 315 316 316 315 314 313 311 311 311 312 315 317 317 316 313 310 307 306 306 305 304 304 305 306 306 306 307 307 307 306 305 305 304 303 301 296 288 281 275 266 258 254 249 243 240 238 235 233 233 231 228
282 282 278 275 275 277 279 282 285 287 288 290 292 293 292 294 295 296 298 300 303 309 315 316 315 315 314 314 313 313 312 312 312 312 313 314 315 315 314 313 311 310 310 310 313 316 316 315 312 308 306 305 305 306 305 304 305 305 306 307 308 309 309 308 308 308 307 306 305 301 293 282 273 266 258 253 250 245 240 237 233 232 232 231 227
278 276 274 275 275 276 278 281 284 286 287 289 290 291 292 294 296 298 299 302 307 314 317 316 315 316 315 313 312 311 309 309 309 309 310 313 315 315 314 312 310 309 307 306 307 312 315 314 310 307 305 304 305 305 304 303 304 306 307 308 308 308 308 308 309 308 308 307 308 307 302 289 274 266 259 253 249 245 241 236 232 230 232 232 228
273 273 274 275 275 275 278 280 282 285 286 288 289 291 293 295 298 300 301 305 312 317 316 314 314 314 313 311 311 310 308 307 306 305 308 311 314 315 314 310 308 308 306 302 302 308 313 313 309 306 303 302 303 304 302 301 302 306 308 308 307 307 308 308 309 309 309 309 309 309 308 300 283 268 261 254 248 244 240 236 232 230 231 231 229
271 271 271 272 274 276 278 279 281 283 285 287 289 291 294 297 300 302 305 310 316 317 317 317 317 318 317 315 314 313 312 310 305 302 305 309 312 313 313 308 306 308 306 300 298 303 309 311 307 304 302 301 301 302 301 300 301 305 307 307 306 307 308 308 309 310 310 310 311 311 310 306 294 275 262 256 249 243 239 235 232 231 231 230 229
269 268 269 270 273 275 277 278 280 282 284 287 290 293 296 299 302 304 309 314 317 318 320 322 322 322 320 317 317 318 316 313 307 300 301 306 309 311 310 305 302 305 306 301 298 301 305 307 305 304 302 301 300 301 300 299 301 303 305 305 306 307 307 307 309 310 310 311 313 312 310 307 300 286 268 259 253 245 238 234 232 232 232 231 228
269 269 270 270 271 273 275 277 280 283 286 289 292 295 297 301 304 307 311 315 317 318 319 320 320 319 316 313 317 319 316 312 307 299 298 304 308 308 307 302 299 301 304 302 299 300 302 304 304 304 302 300 299 299 299 300 302 303 304 304 305 305 305 307 308 309 310 311 312 311 310 308 303 296 281 266 257 248 239 234 231 231 231 231 228
269 271 272 272 272 274 276 280 283 287 289 291 294 297 299 303 307 308 309 311 314 317 319 318 318 318 315 312 317 320 316 310 306 300 299 305 309 307 304 300 298 299 301 301 299 299 301 303 304 303 301 300 299 298 300 302 304 304 303 303 304 304 304 306 307 308 310 310 310 310 311 308 304 301 296 280 262 250 240 234 231 230 229 229 227
267 270 272 274 275 278 282 285 288 290 291 294 296 298 300 303 306 305 303 307 312 317 319 319 319 321 316 311 315 320 315 309 305 300 300 306 310 309 305 300 297 297 298 299 299 299 300 301 302 302 300 299 298 298 300 303 304 303 303 302 303 303 303 304 306 308 309 310 310 310 309 306 301 300 300 291 268 249 239 233 231 230 229 227 224
268 270 272 275 279 284 288 290 291 292 293 295 297 299 301 302 302 300 299 303 310 315 317 316 318 321 316 309 313 317 311 304 300 294 295 306 315 314 309 303 298 296 297 298 298 299 300 301 302 302 299 297 298 298 300 302 303 303 303 303 302 302 303 304 305 307 309 309 309 308 306 303 299 296 297 293 271 248 238 232 229 230 230 227 223
264 268 273 279 285 289 290 290 291 291 292 295 296 297 299 300 300 298 297 301 307 312 314 314 314 316 314 310 314 316 308 299 297 291 292 309 321 318 310 303 298 296 295 296 297 298 299 300 301 301 298 296 297 298 300 301 302 303 303 303 303 303 303 305 306 308 310 310 310 309 306 303 299 297 298 294 271 245 236 233 229 229 230 227 224
264 269 275 282 286 287 286 285 286 288 290 292 293 294 296 297 296 295 297 301 305 308 310 311 311 312 313 312 314 315 307 301 299 294 295 311 319 316 309 301 297 296 295 295 296 297 298 299 301 301 298 296 297 298 298 299 301 303 304 304 304 304 304 306 308 309 311 313 314 314 311 307 303 301 302 297 272 241 232 232 231 229 229 228 226
265 272 276 280 281 280 280 281 283 286 288 290 291 292 293 293 293 293 296 300 303 305 307 308 309 311 312 311 312 312 308 303 299 293 295 304 310 311 307 301 297 295 294 294 295 296 297 298 300 301 298 296 296 296 297 299 301 303 303 303 303 304 305 307 309 310 313 318 321 319 316 312 307 304 305 300 274 241 228 230 232 232 230 230 228
267 273 276 280 282 279 279 281 283 285 287 288 289 290 291 291 292 293 295 299 302 304 305 306 308 309 309 309 309 309 308 306 301 298 298 300 303 305 304 301 297 294 293 292 293 295 295 297 299 300 297 295 294 295 298 300 302 302 302 302 302 304 306 308 309 312 318 324 327 325 320 317 312 307 306 300 273 242 229 228 231 233 232 231 228
264 274 285 289 288 283 278 278 280 282 285 286 287 290 291 292 292 293 295 298 300 302 303 305 306 307 307 307 307 307 307 306 304 302 301 300 301 303 303 300 296 293 291 290 291 292 293 295 299 300 297 293 293 295 299 301 301 301 301 301 302 304 307 309 310 316 323 329 333 331 325 321 317 309 305 298 271 244 234 229 230 231 231 231 228
263 291 303 300 295 286 278 276 279 280 282 285 288 292 295 296 296 295 296 298 299 300 303 304 305 306 306 306 306 305 305 304 303 302 302 302 303 304 303 299 294 290 288 288 289 291 292 295 298 298 295 292 292 295 299 300 300 301 301 300 301 304 307 309 311 319 327 332 336 337 332 328 322 312 305 297 270 246 241 236 232 231 229 230 227
267 297 304 300 297 289 280 277 278 280 285 291 294 297 299 299 298 297 297 299 301 302 305 306 306 306 305 304 304 303 303 302 302 303 303 304 304 305 302 296 290 286 285 286 289 290 292 295 298 296 293 291 291 293 296 297 298 300 299 299 301 304 306 307 311 320 328 332 337 341 341 337 331 320 309 298 272 248 246 243 237 233 230 229 225
284 299 302 301 299 290 280 278 280 285 292 297 297 298 299 299 298 298 300 302 303 305 306 306 305 304 303 303 302 301 301 302 302 303 304 304 305 305 301 293 289 286 285 285 286 288 291 295 296 293 291 290 289 289 292 294 297 299 299 300 302 304 305 306 310 320 327 331 336 343 347 347 342 331 316 300 274 247 245 245 239 234 230 225 218
293 296 297 298 296 288 280 281 286 292 296 296 295 296 297 298 299 300 301 302 303 304 303 303 302 302 301 301 300 300 301 302 302 303 303 304 305 303 298 293 291 289 286 285 285 287 290 292 292 291 289 287 285 286 289 293 297 300 300 301 302 303 302 303 307 316 324 330 336 343 350 353 351 344 328 304 274 248 240 241 238 231 224 217 211
287 288 290 291 288 283 282 285 290 294 294 293 293 295 296 297 298 299 299 300 301 301 301 301 301 301 300 300 301 302 303 304 304 305 304 303 302 298 294 291 290 288 286 286 286 288 290 290 290 290 290 285 282 284 287 292 296 300 301 301 301 301 300 300 305 314 322 329 335 342 350 354 354 354 349 320 277 253 236 229 229 224 214 209 206
281 282 285 285 282 281 284 288 292 294 293 293 295 295 296 297 297 298 299 300 300 301 302 301 301 301 301 302 303 304 306 307 307 307 305 302 299 297 294 291 289 287 286 287 288 290 290 289 289 291 290 284 279 281 285 290 295 299 301 301 300 300 298 298 303 311 319 326 332 339 347 353 355 357 1 354 287 256 236 221 219 214 206 203 203
279 282 285 285 284 285 288 291 294 295 295 295 296 296 296 297 298 298 299 300 301 301 302 301 301 301 302 303 304 306 309 311 310 307 304 302 300 299 297 294 290 287 287 288 289 289 288 288 290 293 289 281 276 278 284 289 294 298 300 300 300 299 297 297 300 308 316 323 330 337 344 350 355 357 1 11 346 247 234 220 212 207 202 202 203
283 285 286 287 288 290 292 294 295 295 295 295 295 296 297 298 298 298 299 300 301 301 301 300 300 300 302 303 304 306 311 313 311 307 304 303 302 301 299 296 292 290 289 290 290 288 286 288 292 293 288 280 275 276 283 288 292 296 298 299 299 297 295 295 298 305 314 320 327 334 340 346 351 354 359 10 23 252 225 220 212 204 202 204 205
283 284 285 287 290 292 293 294 294 295 296 296 296 296 297 297 298 299 300 300 301 300 300 300 300 300 301 302 303 305 308 310 308 305 304 303 302 301 300 298 295 293 293 293 292 290 289 291 291 289 285 279 275 276 281 286 290 293 295 296 296 295 294 295 297 303 310 317 322 329 336 341 347 352 356 5 17 36 194 214 214 206 203 206 208
282 283 285 288 290 291 292 292 293 295 297 296 295 295 296 297 299 300 300 301 301 300 299 299 300 300 301 302 303 304 305 304 304 303 303 302 301 300 301 299 296 295 295 295 295 295 294 291 287 285 282 277 274 276 280 283 286 289 291 292 292 292 292 293 295 299 305 310 315 321 329 336 342 349 355 360 9 23 62 199 213 211 206 207 210
283 285 287 288 289 289 290 292 294 296 296 294 293 294 296 298 299 300 300 300 299 299 299 300 300 300 302 303 304 304 303 300 299 299 300 301 301 300 299 297 295 294 294 296 300 303 300 291 284 282 280 276 274 274 276 279 282 284 286 287 288 290 291 291 293 296 299 304 309 315 323 330 337 345 352 357 3 13 28 110 202 211 211 210 211
283 284 285 286 286 288 290 293 294 294 294 293 293 295 297 299 299 300 299 298 298 298 299 299 299 300 302 304 304 303 301 297 295 295 297 299 300 300 297 295 294 294 293 294 299 304 304 298 290 284 280 277 276 275 274 276 279 281 282 283 285 288 290 290 292 293 294 298 304 309 316 324 331 339 347 353 359 6 16 34 156 202 212 214 213
282 282 282 282 284 288 291 293 293 292 292 293 294 296 298 299 299 298 298 297 297 297 298 299 299 301 302 303 302 301 300 297 294 294 295 297 298 298 296 294 295 296 295 293 293 297 301 301 296 288 283 280 278 277 276 277 279 280 281 282 284 287 289 291 293 293 294 296 300 305 311 317 324 332 340 348 355 0 7 18 35 174 207 213 214
280 280 281 283 286 290 291 291 291 291 292 293 295 297 298 298 298 297 297 296 296 297 298 299 300 301 302 301 301 302 301 298 296 295 296 297 297 297 295 293 293 296 297 294 292 293 297 300 297 291 286 283 280 278 278 279 279 280 281 282 284 286 288 291 293 295 295 297 300 304 308 312 317 324 332 340 348 353 359 8 15 19 216 204 206
283 285 286 288 290 291 291 290 290 291 292 294 295 296 296 296 296 296 295 295 296 298 299 300 301 301 301 301 301 302 301 299 297 297 298 299 298 297 295 292 292 294 294 292 289 290 293 296 296 293 290 287 284 280 280 281 281 281 281 282 284 286 288 290 292 294 295 297 299 302 304 306 310 316 322 330 339 345 350 357 5 8 5 326 205
289 292 292 291 291 291 290 290 291 291 292 293 294 294 295 295 295 294 293 294 296 298 299 300 300 299 299 300 301 301 300 298 298 298 300 301 300 298 296 294 294 292 290 288 288 287 288 291 293 291 289 287 284 282 281 281 281 281 282 283 285 287 289 290 291 292 293 295 296 299 302 303 305 309 314 320 326 334 340 345 351 360 2 358 340
288 291 291 291 291 290 289 290 291 291 292 293 293 294 294 293 292 291 291 293 296 298 298 298 297 297 298 299 300 300 299 299 300 300 300 300 299 297 297 297 296 293 289 287 288 287 286 286 287 287 285 283 281 279 279 279 279 281 283 284 287 289 290 290 290 290 291 293 294 296 298 301 303 305 307 312 316 321 328 334 338 345 352 354 354
285 288 290 291 292 290 289 289 290 290 291 292 292 293 293 291 290 289 290 292 295 296 296 295 295 296 297 298 298 298 298 298 299 299 297 295 295 294 294 295 295 295 293 290 288 287 285 284 283 283 282 281 280 279 278 279 280 282 283 284 286 287 288 289 289 289 290 291 293 294 295 297 300 301 302 304 307 310 315 320 325 330 337 341 345
286 289 291 292 291 289 289 289 289 290 291 292 292 292 291 290 289 289 291 293 294 294 293 293 293 294 295 295 294 295 296 297 297 295 292 290 290 290 290 290 290 291 292 290 287 285 284 284 285 285 282 279 278 279 279 280 282 283 283 283 283 284 285 286 287 287 288 289 290 292 293 294 295 297 298 299 301 302 305 308 311 314 321 326 331
289 290 291 291 290 289 289 289 290 291 291 291 291 291 290 289 290 290 291 292 292 292 291 291 291 292 292 292 292 293 294 295 294 291 289 287 287 287 287 287 286 287 288 286 285 285 284 285 288 289 287 283 280 279 279 279 280 280 281 282 282 282 283 284 285 286 287 287 288 289 290 291 292 293 294 295 296 297 298 300 300 301 305 310 316
290 291 291 291 290 289 289 290 291 291 291 290 290 289 289 289 290 290 291 291 290 289 289 290 290 291 291 291 292 292 292 292 290 287 286 285 285 285 285 284 284 284 284 283 284 285 284 284 286 287 287 286 283 280 278 277 277 278 279 279 281 282 282 283 285 285 286 287 287 288 288 289 289 290 290 291 293 293 293 293 292 291 293 295 299
290 291 291 291 291 290 291 291 291 291 290 289 289 288 289 290 290 290 290 290 288 288 288 289 289 290 291 291 292 292 292 291 289 286 285 284 283 283 282 281 281 280 279 279 280 281 281 281 282 281 280 280 278 277 277 276 275 277 278 278 280 281 281 282 283 285 285 286 286 287 287 287 287 288 288 288 289 290 289 288 287 284 284 285 286
290 291 291 292 292 292 293 293 292 291 290 289 289 289 290 291 291 291 290 289 287 287 288 287 287 288 289 289 289 290 290 289 288 286 285 284 282 281 280 279 278 277 277 277 278 278 279 280 280 278 277 276 275 274 274 274 274 275 277 278 279 280 280 281 282 283 284 285 285 285 286 286 285 285 285 285 286 286 285 284 283 280 278 278 278
290 290 291 292 293 294 294 293 291 290 288 288 289 290 292 293 293 292 290 289 289 289 289 288 287 287 286 285 285 285 285 284 284 284 283 283 282 282 281 280 280 279 278 277 278 278 278 279 279 278 277 277 276 275 274 274 275 275 276 277 278 279 279 280 281 281 282 283 284 284 284 284 283 282 282 281 282 282 281 280 279 277 274 273 273
289 289 290 292 293 293 292 290 289 289 289 290 291 292 293 293 292 291 290 290 291 291 290 288 287 286 284 281 280 280 280 281 282 282 282 282 282 282 282 282 282 282 281 280 279 278 277 277 277 276 276 275 275 275 275 275 275 276 276 276 277 278 279 279 280 280 280 281 281 281 282 281 280 279 278 277 276 276 276 275 274 273 272 271 269
288 288 290 291 292 291 290 289 289 290 291 291 292 292 292 291 290 289 289 290 290 291 290 289 289 289 287 284 282 281 282 282 282 282 282 282 283 283 283 283 282 282 281 281 280 278 277 276 274 273 273 272 272 272 273 274 275 276 276 277 277 278 279 279 280 279 279 279 278 277 277 277 277 276 275 273 272 271 271 271 269 268 268 267 266
290 290 290 290 290 289 289 290 290 290 291 292 292 293 292 292 291 291 291 291 292 292 292 292 292 292 291 288 286 284 284 283 283 283 283 283 284 284 283 282 282 281 281 280 279 277 276 274 272 270 270 270 270 270 271 272 274 275 277 278 279 279 279 279 278 278 277 276 275 274 273 272 272 272 272 271 269 267 266 267 266 265 264 263 262